This is the latest recevied weather packets stored in our database for station/object OE-11053. If no packets are shown the sender has not sent any weather packets the latest 10 day(s).
| Time | Temp. | Humidity | Pressure | Rain* | Wind** | Luminosity | Snow |
|---|---|---|---|---|---|---|---|
| 1787748923 | 25° C | 56% | 1015.8 hPa | 0 mm | - | 659 W/m² | - |
| 1787748096 | 24.44° C | 57% | 1016 hPa | 0 mm | - | 710 W/m² | - |
| 1787747723 | 25° C | 58% | 1016 hPa | 0 mm | - | 691 W/m² | - |
| 1787747122 | 24.44° C | 59% | 1016 hPa | 0 mm | - | 748 W/m² | - |
| 1787746296 | 24.44° C | 60% | 1016.1 hPa | 0 mm | - | 754 W/m² | - |
| 1787745923 | 24.44° C | 59% | 1016.1 hPa | 0 mm | - | 767 W/m² | - |
| 1787745322 | 23.89° C | 61% | 1016.2 hPa | 0 mm | - | 774 W/m² | - |
| 1787744495 | 23.89° C | 62% | 1016.3 hPa | 0 mm | - | 652 W/m² | - |
| 1787744123 | 23.89° C | 62% | 1016.4 hPa | 0 mm | - | 524 W/m² | - |
| 1787743523 | 23.89° C | 63% | 1016.5 hPa | 0 mm | - | 499 W/m² | - |
| 1787742695 | 23.33° C | 65% | 1016.7 hPa | 0 mm | - | 448 W/m² | - |
| 1787742321 | 23.33° C | 64% | 1016.7 hPa | 0 mm | - | 774 W/m² | - |
| 1787741721 | 23.33° C | 64% | 1016.9 hPa | 0 mm | - | 639 W/m² | - |
| 1787740895 | 22.78° C | 67% | 1017.1 hPa | 0 mm | - | 556 W/m² | - |
| 1787740522 | 22.78° C | 66% | 1017.1 hPa | 0 mm | - | 665 W/m² | - |
| 1787739922 | 22.78° C | 67% | 1017.1 hPa | 0 mm | - | 665 W/m² | - |
| 1787739095 | 22.78° C | 69% | 1017.1 hPa | 0 mm | - | 569 W/m² | - |
| 1787738722 | 22.22° C | 69% | 1017.3 hPa | 0 mm | - | 588 W/m² | - |
| 1787738122 | 22.78° C | 70% | 1017.2 hPa | 0 mm | - | 806 W/m² | - |
| 1787737295 | 21.67° C | 73% | 1017.4 hPa | 0 mm | - | 665 W/m² | - |
| 1787736921 | 21.11° C | 75% | 1017.4 hPa | 0 mm | - | 556 W/m² | - |
| 1787736322 | 20.56° C | 78% | 1017.6 hPa | 0 mm | - | 352 W/m² | - |
| 1787735495 | 20° C | 78% | 1017.6 hPa | 0 mm | - | 281 W/m² | - |
| 1787735122 | 20° C | 79% | 1017.5 hPa | 0 mm | - | 198 W/m² | - |
| 1787733695 | 20° C | 79% | 1017.8 hPa | 0 mm | - | 467 W/m² | - |
* Rain latest hour (hover to see other rain measurements)
** Current wind speed in m/s (hover to see current wind gust speed)